This demonstration page uses our WeatherBlox Daily Observations layout. Learn more.

Left ArrowRight Arrow

39.29038, -76.61219

Hourly Observations for April 14, 2021

Temp ( °F °C ) Dew Point ( °F °C ) Humidity (%) Winds ( mph kmh ) Pressure ( in mb ) Visibility ( mi km ) Precip ( " mm )
12:54 am 00:54 Mostly Clear 52 11.1 46 7.8 80 80 N N/A 30.09 1019 10 16.0934 N/A
1:54 am 01:54 Clear 50 10 45 7.2 83 83 SE 6 9 30.09 1019 10 16.0934 N/A
2:54 am 02:54 Mostly Clear 49 9.4 45 7.2 86 86 N N/A 30.08 1019 10 16.0934 N/A
3:54 am 03:54 Mostly Clear 49 9.4 45 7.2 86 86 N N/A 30.07 1018 10 16.0934 N/A
4:54 am 04:54 Partly Cloudy 49 9.4 45 7.2 86 86 N N/A 30.06 1018 10 16.0934 N/A
5:54 am 05:54 Mostly Cloudy 49 9.4 45 7.2 86 86 E 3 6 30.07 1018 10 16.0934 N/A
6:54 am 06:54 Mostly Cloudy 51 10.6 47 8.3 86 86 N N/A 30.09 1019 10 16.0934 N/A
7:54 am 07:54 Mostly Cloudy 53 11.7 49 9.4 86 86 VRB 3 6 30.07 1018 10 16.0934 N/A
8:19 am 08:19 Mostly Cloudy 55 12.8 49 9.4 80 80 SSW 3 6 30.08 1019 10 16.0934 N/A
8:54 am 08:54 Mostly Cloudy 56 13.3 49 9.4 77 77 SW 6 9 30.08 1019 10 16.0934 N/A
9:54 am 09:54 Mostly Cloudy 61 16.1 50 10 67 67 SSW 6 9 30.06 1018 10 16.0934 N/A
10:54 am 10:54 Cloudy with Light Rain 64 17.8 50 10 60 60 SW 7 11 30.06 1018 10 16.0934 0.001 0.001
11:54 am 11:54 Cloudy with Light Rain 63 17.2 52 11.1 68 68 W 9 15 30.07 1018 10 16.0934 0.001 0.001
12:54 pm 12:54 Cloudy with Light Rain 63 17.2 51 10.6 65 65 SW 8 13 30.06 1018 10 16.0934 0.01 0.254
1:54 pm 13:54 Cloudy 60 15.6 54 12.2 80 80 S 3 6 30.04 1017 10 16.0934 0.01 0.254
2:54 pm 14:54 Cloudy with Light Rain 60 15.6 53 11.7 78 78 S 3 6 30.01 1016 7 11.26538 0.01 0.254
3:11 pm 15:11 Cloudy with Light Rain 59 15 53 11.7 81 81 S 3 6 30 1016 2.5 4.02335 0.01 0.254
3:25 pm 15:25 Cloudy with Light Rain 59 15 53 11.7 81 81 SSW 3 6 30 1016 2.5 4.02335 0.02 0.508
3:27 pm 15:27 Cloudy with Light Rain 59 15 53 11.7 81 81 S 5 7 29.99 1016 2 3.21868 0.02 0.508
3:54 pm 15:54 Cloudy with Light Rain 59 15 55 12.8 87 87 SSE 5 7 29.97 1015 2 3.21868 0.03 0.762
4:19 pm 16:19 Cloudy with Light Rain 59 15 55 12.8 87 87 N N/A 29.97 1015 2 3.21868 0.01 0.254
4:42 pm 16:42 Cloudy with Light Rain 59 15 55 12.8 87 87 S 3 6 29.95 1014 5 8.0467 0.01 0.254
4:54 pm 16:54 Cloudy with Light Rain 58 14.4 54 12.2 87 87 VRB 3 6 29.95 1014 5 8.0467 0.01 0.254
5:29 pm 17:29 Cloudy with Light Rain 58 14.4 54 12.2 87 87 S 6 9 29.95 1014 4 6.43736 0.01 0.254
5:54 pm 17:54 Cloudy with Light Rain 58 14.4 55 12.8 90 90 VRB 5 7 29.95 1014 4 6.43736 0.02 0.508
6:04 pm 18:04 Cloudy with Light Rain 58 14.4 55 12.8 90 90 SSE 5 7 29.94 1014 4 6.43736 0.01 0.254
6:54 pm 18:54 Cloudy with Light Rain 58 14.4 55 12.8 90 90 VRB 6 9 29.95 1014 4 6.43736 0.05 1.27
7:54 pm 19:54 Cloudy with Light Rain 58 14.4 55 12.8 90 90 SSW 5 7 29.95 1014 4 6.43736 0.03 0.762
8:54 pm 20:54 Cloudy with Light Rain 57 13.9 55 12.8 93 93 SSW 3 6 29.93 1014 5 8.0467 0.02 0.508
9:54 pm 21:54 Cloudy with Light Rain 57 13.9 54 12.2 90 90 SSW 6 9 29.92 1013 5 8.0467 0.02 0.508
10:54 pm 22:54 Cloudy with Mist and Fog 57 13.9 54 12.2 90 90 SSW 7 11 29.89 1012 6 9.65604 0.001 0.001
11:54 pm 23:54 Cloudy 56 13.3 54 12.2 93 93 S 5 7 29.87 1012 7 11.26538 N/A

Powered by AerisWeather